Notices

What's New in latest Release from April 7th, 2021:

- Updated Glossary, including Speed of Maximum Gust, and Total Hourly Precipitation

- Updated national and regional climate services offices contacts and prices information

- Addition of station inventory lists for 1981-2010, 1971-2000, and 1961-1990 Normals.

If you haven't already, please take our survey and provide feedback about our website: https://eccc.sondage-survey.ca/f/LanguageSelection.aspx?s=442ca660-fcf1-47c0-95a9-59707d6fd709

Hourly Data Report for April 05, 2019

MIRAMICHI RCS
NEW BRUNSWICK
Current Station Operator: ECCC - MSC

47°00'34.000" N
65°27'54.000" W
33.00 m
8100989
71744
ACQ

Download Data

Hourly Data (April 2019)
Hourly Data Report for April 5, 2019
TIME
LST
Temp Definition
°C
Dew Point Definition
°C
Rel Hum Definition
%
Precip. Amount Definition
mm

Wind Dir Definition
10's deg

Wind Spd Definition
km/h
Visibility Definition
km
Stn Press Definition
kPa
Hmdx Definition


Wind Chill Definition


Weather Definition


00:00 -4.7 -12.4 55 0.0 29 28   101.02   -12 LegendNANA
01:00 -4.9 -12.2 56 0.0 28 24   101.13   -12 LegendNANA
02:00 -4.8 -12.2 56 0.0 28 26   101.24   -12 LegendNANA
03:00 -4.9 -12.3 56 0.0 29 21   101.32   -12 LegendNANA
04:00 -5.2 -13.6 52 0.0 28 23   101.43   -12 LegendNANA
05:00 -5.9 -14.6 50 0.0 28 22   101.51   -13 LegendNANA
06:00 -6.4 -15.3 49 0.0 27 16   101.65   -13 LegendNANA
07:00 -5.9 -15.9 45 0.0 29 20   101.75   -13 LegendNANA
08:00 -4.8 -16.0 41 0.0 29 21   101.81   -11 LegendNANA
09:00 -3.2 -16.3 36 0.0 30 15   101.81   -8 LegendNANA
10:00 -2.0 -16.5 32 0.0 29 21   101.88   -8 LegendNANA
11:00 -0.2 -16.7 28 0.0 30 24   101.93   -6 LegendNANA
12:00 1.5 -16.8 24 0.0 28 23   101.95     LegendNANA
13:00 2.4 -17.3 22 0.0 29 28   101.96     LegendNANA
14:00 3.1 -15.3 25 0.0 26 28   101.94     LegendNANA
15:00 4.1 -15.2 23 0.0 28 21   101.87     LegendNANA
16:00 4.7 -15.0 23 0.0 28 22   101.85     LegendNANA
17:00 4.3 -14.2 25 0.0 25 20   101.87     LegendNANA
18:00 3.8 -15.1 24 0.0 24 18   101.87     LegendNANA
19:00 2.4 -14.0 29 0.0 25 12   101.92     LegendNANA
20:00 1.0 -13.3 34 0.0 24 10   101.92     LegendNANA
21:00 0.6 -12.4 37 0.0 24 6   101.92     LegendNANA
22:00 0.3 -11.9 39 0.0 23 6   101.87     LegendNANA
23:00 -0.7 -10.6 47 0.0 22 8   101.81   -4 LegendNANA

Notes on Data Quality.

Legend

  • E = Estimated
  • M = Missing
  • NA = Not Available*
  • [empty] = Indicates an unobserved value
Date modified: